Time,TemperatureF,DewpointF,PressureIn,WindDirection,WindDirectionDegrees,WindSpeedMPH,WindSpeedGustMPH,Humidity,HourlyPrecipIn,Conditions,Clouds,dailyrainin,SoftwareType,DateUTC
2013-01-13 00:02:00,70.7,66.0,30.06,SE,144,7.0,10.0,85,0.00,,,0.00,meteohub,2013-01-13 05:02:00,
2013-01-13 00:07:00,70.7,66.0,30.06,SE,144,4.0,10.0,85,0.00,,,0.00,meteohub,2013-01-13 05:07:00,
2013-01-13 00:12:00,70.7,66.0,30.06,ESE,104,3.0,8.0,85,0.00,,,0.00,meteohub,2013-01-13 05:12:00,
2013-01-13 00:17:00,70.7,66.0,30.06,SSE,148,2.0,8.0,85,0.00,,,0.00,meteohub,2013-01-13 05:17:00,
2013-01-13 00:22:00,70.7,66.0,30.06,SE,142,5.0,8.0,85,0.00,,,0.00,meteohub,2013-01-13 05:22:00,
2013-01-13 00:27:00,70.7,66.0,30.06,ESE,105,3.0,8.0,85,0.00,,,0.00,meteohub,2013-01-13 05:27:00,
2013-01-13 00:32:00,70.5,66.2,30.06,SE,137,0.0,8.0,86,0.00,,,0.00,meteohub,2013-01-13 05:32:00,
2013-01-13 00:37:00,70.5,66.2,30.06,SE,127,4.0,8.0,86,0.00,,,0.00,meteohub,2013-01-13 05:37:00,
2013-01-13 00:42:00,70.5,66.2,30.06,SE,138,2.0,9.0,86,0.00,,,0.00,meteohub,2013-01-13 05:42:00,
2013-01-13 00:47:00,70.5,66.2,30.06,SE,140,5.0,9.0,86,0.00,,,0.00,meteohub,2013-01-13 05:47:00,
2013-01-13 00:52:00,70.5,66.2,30.06,SSE,148,5.0,9.0,86,0.00,,,0.00,meteohub,2013-01-13 05:52:00,
2013-01-13 00:57:00,70.5,66.2,30.06,East,98,1.0,9.0,86,0.00,,,0.00,meteohub,2013-01-13 05:57:00,
2013-01-13 01:02:00,70.5,66.2,30.06,SE,132,2.0,9.0,86,0.00,,,0.00,meteohub,2013-01-13 06:02:00,
2013-01-13 01:07:00,70.5,66.2,30.06,SE,130,3.0,9.0,86,0.00,,,0.00,meteohub,2013-01-13 06:07:00,
2013-01-13 01:12:00,70.3,66.0,30.06,ESE,123,2.0,7.0,86,0.00,,,0.00,meteohub,2013-01-13 06:12:00,
2013-01-13 01:17:00,70.3,66.2,30.06,SSE,152,0.0,7.0,87,0.00,,,0.00,meteohub,2013-01-13 06:17:00,
2013-01-13 01:22:00,70.3,66.2,30.06,SSE,163,3.0,8.0,87,0.00,,,0.00,meteohub,2013-01-13 06:22:00,
2013-01-13 01:27:00,70.3,66.2,30.06,ESE,108,2.0,8.0,87,0.00,,,0.00,meteohub,2013-01-13 06:27:00,
2013-01-13 01:32:00,70.3,66.2,30.06,ESE,119,3.0,6.0,87,0.00,,,0.00,meteohub,2013-01-13 06:32:00,
2013-01-13 01:37:00,70.3,66.2,30.06,ESE,122,5.0,7.0,87,0.00,,,0.00,meteohub,2013-01-13 06:37:00,
2013-01-13 01:42:00,70.2,66.0,30.06,SE,128,4.0,10.0,87,0.00,,,0.00,meteohub,2013-01-13 06:42:00,
2013-01-13 01:47:00,70.2,66.0,30.06,ESE,111,3.0,10.0,87,0.00,,,0.00,meteohub,2013-01-13 06:47:00,
2013-01-13 01:52:00,70.2,66.0,30.06,SE,130,2.0,10.0,87,0.00,,,0.00,meteohub,2013-01-13 06:52:00,
2013-01-13 01:57:00,70.2,66.0,30.06,SE,145,8.0,8.0,87,0.00,,,0.00,meteohub,2013-01-13 06:57:00,
2013-01-13 02:02:00,70.2,66.0,30.06,SSE,150,3.0,10.0,87,0.00,,,0.00,meteohub,2013-01-13 07:02:00,
2013-01-13 02:07:00,70.2,66.0,30.06,SSE,163,1.0,10.0,87,0.00,,,0.00,meteohub,2013-01-13 07:07:00,
2013-01-13 02:12:00,70.2,66.0,30.06,SSE,148,3.0,10.0,87,0.00,,,0.00,meteohub,2013-01-13 07:12:00,
2013-01-13 02:17:00,70.2,66.0,30.06,SSE,148,3.0,9.0,87,0.00,,,0.00,meteohub,2013-01-13 07:17:00,
2013-01-13 02:22:00,70.2,66.0,30.06,SE,142,4.0,9.0,87,0.00,,,0.00,meteohub,2013-01-13 07:22:00,
2013-01-13 02:27:00,70.2,66.0,30.06,SE,136,4.0,9.0,87,0.00,,,0.00,meteohub,2013-01-13 07:27:00,
2013-01-13 02:32:00,70.0,66.0,30.06,SSE,148,3.0,7.0,87,0.00,,,0.00,meteohub,2013-01-13 07:32:00,
2013-01-13 02:37:00,70.0,66.0,30.06,SSE,148,3.0,8.0,87,0.00,,,0.00,meteohub,2013-01-13 07:37:00,
2013-01-13 02:42:00,70.0,66.0,30.06,SE,146,5.0,8.0,87,0.00,,,0.00,meteohub,2013-01-13 07:42:00,
2013-01-13 02:47:00,70.0,66.0,30.06,ESE,121,3.0,9.0,87,0.00,,,0.00,meteohub,2013-01-13 07:47:00,
2013-01-13 02:52:00,70.0,66.0,30.06,ESE,120,2.0,9.0,87,0.00,,,0.00,meteohub,2013-01-13 07:52:00,
2013-01-13 02:57:00,70.0,66.2,30.06,SSE,163,3.0,8.0,88,0.00,,,0.00,meteohub,2013-01-13 07:57:00,
2013-01-13 03:02:00,69.8,65.8,30.06,SE,134,3.0,7.0,87,0.00,,,0.00,meteohub,2013-01-13 08:02:00,
2013-01-13 03:07:00,69.8,65.8,30.06,SE,131,2.0,8.0,87,0.00,,,0.00,meteohub,2013-01-13 08:07:00,
2013-01-13 03:12:00,69.8,66.0,30.06,SSE,156,4.0,8.0,88,0.00,,,0.00,meteohub,2013-01-13 08:12:00,
2013-01-13 03:17:00,69.8,66.0,30.05,South,172,0.0,7.0,88,0.00,,,0.00,meteohub,2013-01-13 08:17:00,
2013-01-13 03:22:00,69.6,65.8,30.05,SSE,158,0.0,7.0,88,0.00,,,0.00,meteohub,2013-01-13 08:22:00,
2013-01-13 03:27:00,69.6,65.8,30.05,SE,134,4.0,7.0,88,0.00,,,0.00,meteohub,2013-01-13 08:27:00,
2013-01-13 03:32:00,69.6,65.8,30.04,SE,138,2.0,8.0,88,0.00,,,0.00,meteohub,2013-01-13 08:32:00,
2013-01-13 03:37:00,69.4,65.7,30.04,SE,126,4.0,8.0,88,0.00,,,0.00,meteohub,2013-01-13 08:37:00,
2013-01-13 03:42:00,69.4,65.7,30.04,SE,145,1.0,10.0,88,0.00,,,0.00,meteohub,2013-01-13 08:42:00,
2013-01-13 03:47:00,69.4,65.7,30.04,ESE,102,1.0,10.0,88,0.00,,,0.00,meteohub,2013-01-13 08:47:00,
2013-01-13 03:52:00,69.3,65.5,30.04,SE,142,3.0,10.0,88,0.00,,,0.00,meteohub,2013-01-13 08:52:00,
2013-01-13 03:57:00,69.3,65.5,30.04,SE,134,1.0,9.0,88,0.00,,,0.00,meteohub,2013-01-13 08:57:00,
2013-01-13 04:02:00,69.3,65.5,30.04,SE,145,4.0,10.0,88,0.00,,,0.00,meteohub,2013-01-13 09:02:00,
2013-01-13 04:07:00,69.3,65.5,30.04,SSE,152,3.0,10.0,88,0.00,,,0.00,meteohub,2013-01-13 09:07:00,
2013-01-13 04:12:00,69.3,65.8,30.04,ESE,119,0.0,9.0,89,0.00,,,0.00,meteohub,2013-01-13 09:12:00,
2013-01-13 04:17:00,69.3,65.8,30.04,East,101,2.0,9.0,89,0.00,,,0.00,meteohub,2013-01-13 09:17:00,
2013-01-13 04:22:00,69.3,65.8,30.04,ESE,122,1.0,9.0,89,0.00,,,0.00,meteohub,2013-01-13 09:22:00,
2013-01-13 04:27:00,69.1,65.7,30.03,SE,140,1.0,9.0,89,0.00,,,0.00,meteohub,2013-01-13 09:27:00,
2013-01-13 04:32:00,69.1,65.7,30.03,SSE,156,2.0,7.0,89,0.00,,,0.00,meteohub,2013-01-13 09:32:00,
2013-01-13 04:37:00,68.9,65.8,30.03,SSE,148,1.0,7.0,90,0.00,,,0.00,meteohub,2013-01-13 09:37:00,
2013-01-13 04:42:00,68.9,65.8,30.03,SE,134,2.0,7.0,90,0.00,,,0.00,meteohub,2013-01-13 09:42:00,
2013-01-13 04:47:00,68.7,65.3,30.03,ESE,109,4.0,9.0,89,0.00,,,0.00,meteohub,2013-01-13 09:47:00,
2013-01-13 04:52:00,68.7,65.3,30.03,ESE,118,3.0,9.0,89,0.00,,,0.00,meteohub,2013-01-13 09:52:00,
2013-01-13 04:57:00,68.5,65.5,30.04,SE,129,0.0,9.0,90,0.00,,,0.00,meteohub,2013-01-13 09:57:00,
2013-01-13 05:02:00,68.5,65.5,30.03,ESE,113,1.0,10.0,90,0.00,,,0.00,meteohub,2013-01-13 10:02:00,
2013-01-13 05:07:00,68.4,65.3,30.03,SE,136,3.0,10.0,90,0.00,,,0.00,meteohub,2013-01-13 10:07:00,
2013-01-13 05:12:00,68.4,65.3,30.03,SE,136,2.0,5.0,90,0.00,,,0.00,meteohub,2013-01-13 10:12:00,
2013-01-13 05:17:00,68.2,65.1,30.03,SSE,150,2.0,8.0,90,0.00,,,0.00,meteohub,2013-01-13 10:17:00,
2013-01-13 05:22:00,68.0,64.9,30.03,ESE,112,7.0,9.0,90,0.00,,,0.00,meteohub,2013-01-13 10:22:00,
2013-01-13 05:27:00,68.0,64.9,30.03,ESE,119,3.0,9.0,90,0.00,,,0.00,meteohub,2013-01-13 10:27:00,
2013-01-13 05:32:00,67.8,65.1,30.03,SE,138,5.0,9.0,91,0.00,,,0.00,meteohub,2013-01-13 10:32:00,
2013-01-13 05:37:00,67.8,65.1,30.03,SE,127,4.0,9.0,91,0.00,,,0.00,meteohub,2013-01-13 10:37:00,
2013-01-13 05:42:00,67.8,65.1,30.03,ESE,109,3.0,9.0,91,0.00,,,0.00,meteohub,2013-01-13 10:42:00,
2013-01-13 05:47:00,67.8,65.1,30.03,SE,139,1.0,9.0,91,0.00,,,0.00,meteohub,2013-01-13 10:47:00,
2013-01-13 05:52:00,67.8,65.1,30.03,SSE,153,4.0,10.0,91,0.00,,,0.00,meteohub,2013-01-13 10:52:00,
2013-01-13 05:57:00,67.8,65.1,30.03,ESE,119,3.0,10.0,91,0.00,,,0.00,meteohub,2013-01-13 10:57:00,
2013-01-13 06:02:00,67.6,64.9,30.03,SE,132,3.0,10.0,91,0.00,,,0.00,meteohub,2013-01-13 11:02:00,
2013-01-13 06:07:00,67.6,64.9,30.03,SE,136,4.0,8.0,91,0.00,,,0.00,meteohub,2013-01-13 11:07:00,
2013-01-13 06:12:00,67.6,64.9,30.03,ESE,104,1.0,8.0,91,0.00,,,0.00,meteohub,2013-01-13 11:12:00,
2013-01-13 06:17:00,67.6,64.9,30.03,SE,128,3.0,8.0,91,0.00,,,0.00,meteohub,2013-01-13 11:17:00,
2013-01-13 06:22:00,67.6,64.9,30.03,SE,133,4.0,8.0,91,0.00,,,0.00,meteohub,2013-01-13 11:22:00,
2013-01-13 06:27:00,67.6,64.9,30.03,ESE,123,2.0,8.0,91,0.00,,,0.00,meteohub,2013-01-13 11:27:00,
2013-01-13 06:32:00,67.6,64.9,30.04,ESE,122,0.0,8.0,91,0.00,,,0.00,meteohub,2013-01-13 11:32:00,
2013-01-13 06:37:00,67.5,64.8,30.04,ESE,120,0.0,7.0,91,0.00,,,0.00,meteohub,2013-01-13 11:37:00,
2013-01-13 06:42:00,67.5,64.8,30.04,ESE,119,2.0,7.0,91,0.00,,,0.00,meteohub,2013-01-13 11:42:00,
2013-01-13 06:47:00,67.5,65.1,30.04,ESE,109,0.0,3.0,92,0.00,,,0.00,meteohub,2013-01-13 11:47:00,
2013-01-13 06:57:00,67.1,64.8,30.04,ESE,103,7.0,7.0,92,0.00,,,0.00,meteohub,2013-01-13 11:57:00,
2013-01-13 07:02:00,66.9,64.6,30.04,East,98,2.0,7.0,92,0.00,,,0.00,meteohub,2013-01-13 12:02:00,
2013-01-13 07:07:00,66.9,64.6,30.04,SSE,149,4.0,7.0,92,0.00,,,0.00,meteohub,2013-01-13 12:07:00,
2013-01-13 07:12:00,66.9,64.6,30.04,ESE,111,3.0,7.0,92,0.00,,,0.00,meteohub,2013-01-13 12:12:00,
2013-01-13 07:17:00,66.9,64.6,30.04,ESE,112,1.0,8.0,92,0.00,,,0.00,meteohub,2013-01-13 12:17:00,
2013-01-13 07:22:00,66.9,64.6,30.04,ESE,109,5.0,8.0,92,0.00,,,0.00,meteohub,2013-01-13 12:22:00,
2013-01-13 07:27:00,66.9,64.6,30.03,ESE,115,3.0,9.0,92,0.00,,,0.00,meteohub,2013-01-13 12:27:00,
2013-01-13 07:32:00,66.9,64.6,30.04,SE,146,1.0,9.0,92,0.00,,,0.00,meteohub,2013-01-13 12:32:00,
2013-01-13 07:37:00,66.9,64.6,30.04,ESE,111,5.0,9.0,92,0.00,,,0.00,meteohub,2013-01-13 12:37:00,
2013-01-13 07:42:00,66.9,64.6,30.04,SSE,156,3.0,9.0,92,0.00,,,0.00,meteohub,2013-01-13 12:42:00,
2013-01-13 07:47:00,67.1,64.8,30.04,SSE,154,3.0,9.0,92,0.00,,,0.00,meteohub,2013-01-13 12:47:00,
2013-01-13 07:52:00,67.3,64.9,30.04,SE,135,5.0,9.0,92,0.00,,,0.00,meteohub,2013-01-13 12:52:00,
2013-01-13 07:57:00,67.5,65.1,30.05,SE,125,5.0,9.0,92,0.00,,,0.00,meteohub,2013-01-13 12:57:00,
2013-01-13 08:02:00,67.6,65.3,30.05,East,96,0.0,9.0,92,0.00,,,0.00,meteohub,2013-01-13 13:02:00,
2013-01-13 08:07:00,67.8,65.1,30.06,SE,140,5.0,9.0,91,0.00,,,0.00,meteohub,2013-01-13 13:07:00,
2013-01-13 08:12:00,68.2,65.5,30.06,East,98,5.0,9.0,91,0.00,,,0.00,meteohub,2013-01-13 13:12:00,
2013-01-13 08:17:00,68.4,65.7,30.06,SE,137,2.0,9.0,91,0.00,,,0.00,meteohub,2013-01-13 13:17:00,
2013-01-13 08:22:00,68.5,65.5,30.07,ESE,109,2.0,11.0,90,0.00,,,0.00,meteohub,2013-01-13 13:22:00,
2013-01-13 08:27:00,68.7,65.3,30.08,SE,126,1.0,11.0,89,0.00,,,0.00,meteohub,2013-01-13 13:27:00,
2013-01-13 08:32:00,69.1,65.7,30.09,SSE,160,3.0,9.0,89,0.00,,,0.00,meteohub,2013-01-13 13:32:00,
2013-01-13 08:42:00,69.6,65.8,30.09,SE,142,2.0,7.0,88,0.00,,,0.00,meteohub,2013-01-13 13:42:00,
2013-01-13 08:47:00,70.0,66.2,30.10,South,175,1.0,7.0,88,0.00,,,0.00,meteohub,2013-01-13 13:47:00,
2013-01-13 08:52:00,70.3,66.2,30.09,East,89,7.0,7.0,87,0.00,,,0.00,meteohub,2013-01-13 13:52:00,
2013-01-13 08:57:00,70.3,66.2,30.10,ESE,120,4.0,8.0,87,0.00,,,0.00,meteohub,2013-01-13 13:57:00,
2013-01-13 09:02:00,70.5,66.4,30.10,SSE,159,0.0,8.0,87,0.00,,,0.00,meteohub,2013-01-13 14:02:00,
2013-01-13 09:07:00,71.1,66.7,30.10,SE,132,0.0,8.0,86,0.00,,,0.00,meteohub,2013-01-13 14:07:00,
2013-01-13 09:12:00,71.2,66.6,30.11,ESE,103,0.0,7.0,85,0.00,,,0.00,meteohub,2013-01-13 14:12:00,
2013-01-13 09:17:00,71.2,66.6,30.11,ESE,112,2.0,7.0,85,0.00,,,0.00,meteohub,2013-01-13 14:17:00,
2013-01-13 09:22:00,71.2,66.6,30.12,SE,143,6.0,7.0,85,0.00,,,0.00,meteohub,2013-01-13 14:22:00,
2013-01-13 09:27:00,71.2,66.6,30.12,SE,143,2.0,8.0,85,0.00,,,0.00,meteohub,2013-01-13 14:27:00,
2013-01-13 09:32:00,71.4,66.7,30.12,ESE,103,5.0,8.0,85,0.00,,,0.00,meteohub,2013-01-13 14:32:00,
2013-01-13 09:37:00,71.8,67.1,30.12,SE,140,1.0,8.0,85,0.00,,,0.00,meteohub,2013-01-13 14:37:00,
2013-01-13 09:42:00,72.3,67.3,30.13,ESE,113,2.0,8.0,84,0.00,,,0.00,meteohub,2013-01-13 14:42:00,
2013-01-13 09:47:00,72.3,66.9,30.13,SE,125,0.0,8.0,83,0.00,,,0.00,meteohub,2013-01-13 14:47:00,
2013-01-13 09:52:00,72.7,66.9,30.13,East,82,6.0,8.0,82,0.00,,,0.00,meteohub,2013-01-13 14:52:00,
2013-01-13 09:57:00,72.7,67.3,30.13,South,176,5.0,8.0,83,0.00,,,0.00,meteohub,2013-01-13 14:57:00,
2013-01-13 10:02:00,72.9,67.5,30.13,SE,142,2.0,8.0,83,0.00,,,0.00,meteohub,2013-01-13 15:02:00,
2013-01-13 10:07:00,72.9,67.1,30.14,East,101,6.0,8.0,82,0.00,,,0.00,meteohub,2013-01-13 15:07:00,
2013-01-13 10:12:00,72.7,66.9,30.14,SSE,160,2.0,8.0,82,0.00,,,0.00,meteohub,2013-01-13 15:12:00,
2013-01-13 10:17:00,73.0,67.3,30.14,SE,144,2.0,8.0,82,0.00,,,0.00,meteohub,2013-01-13 15:17:00,
2013-01-13 10:22:00,73.6,67.5,30.14,East,88,6.0,8.0,81,0.00,,,0.00,meteohub,2013-01-13 15:22:00,
2013-01-13 10:27:00,73.6,67.5,30.13,East,96,6.0,9.0,81,0.00,,,0.00,meteohub,2013-01-13 15:27:00,
2013-01-13 10:32:00,73.6,67.5,30.13,East,84,1.0,11.0,81,0.00,,,0.00,meteohub,2013-01-13 15:32:00,
2013-01-13 10:37:00,73.8,67.6,30.13,SSE,147,0.0,11.0,81,0.00,,,0.00,meteohub,2013-01-13 15:37:00,
2013-01-13 10:42:00,74.1,67.6,30.13,SSE,152,4.0,9.0,80,0.00,,,0.00,meteohub,2013-01-13 15:42:00,
2013-01-13 10:47:00,74.3,67.6,30.13,SE,144,9.0,9.0,80,0.00,,,0.00,meteohub,2013-01-13 15:47:00,
2013-01-13 10:52:00,73.8,67.6,30.12,South,169,3.0,9.0,81,0.00,,,0.00,meteohub,2013-01-13 15:52:00,
2013-01-13 10:57:00,73.6,67.5,30.12,SE,130,8.0,10.0,81,0.00,,,0.00,meteohub,2013-01-13 15:57:00,
2013-01-13 11:02:00,73.6,67.5,30.12,ESE,110,4.0,10.0,81,0.00,,,0.00,meteohub,2013-01-13 16:02:00,
2013-01-13 11:07:00,73.8,68.0,30.12,South,180,4.0,10.0,82,0.00,,,0.00,meteohub,2013-01-13 16:07:00,
2013-01-13 11:12:00,74.3,67.6,30.12,ESE,107,5.0,10.0,80,0.00,,,0.00,meteohub,2013-01-13 16:12:00,
2013-01-13 11:17:00,74.5,67.5,30.11,SE,137,6.0,10.0,79,0.00,,,0.00,meteohub,2013-01-13 16:17:00,
2013-01-13 11:22:00,74.3,67.3,30.11,SE,141,8.0,11.0,79,0.00,,,0.00,meteohub,2013-01-13 16:22:00,
2013-01-13 11:27:00,74.1,67.6,30.11,SE,128,5.0,11.0,80,0.00,,,0.00,meteohub,2013-01-13 16:27:00,
2013-01-13 11:32:00,73.9,67.5,30.10,SSE,150,5.0,11.0,80,0.00,,,0.00,meteohub,2013-01-13 16:32:00,
2013-01-13 11:37:00,73.9,67.5,30.10,SSE,150,7.0,14.0,80,0.00,,,0.00,meteohub,2013-01-13 16:37:00,
2013-01-13 11:42:00,74.5,68.2,30.10,SE,141,5.0,14.0,81,0.00,,,0.00,meteohub,2013-01-13 16:42:00,
2013-01-13 11:47:00,75.2,67.8,30.09,SSE,157,6.0,14.0,78,0.00,,,0.00,meteohub,2013-01-13 16:47:00,
2013-01-13 11:52:00,75.2,67.5,30.09,SE,134,9.0,12.0,77,0.00,,,0.00,meteohub,2013-01-13 16:52:00,
2013-01-13 11:57:00,74.8,67.5,30.09,SSE,159,5.0,12.0,78,0.00,,,0.00,meteohub,2013-01-13 16:57:00,
2013-01-13 12:02:00,74.7,67.6,30.09,SE,127,8.0,12.0,79,0.00,,,0.00,meteohub,2013-01-13 17:02:00,
2013-01-13 12:07:00,74.7,67.6,30.09,SSE,158,7.0,13.0,79,0.00,,,0.00,meteohub,2013-01-13 17:07:00,
2013-01-13 12:12:00,74.7,67.6,30.09,SE,140,4.0,14.0,79,0.00,,,0.00,meteohub,2013-01-13 17:12:00,
2013-01-13 12:17:00,75.6,67.8,30.09,SSE,165,6.0,14.0,77,0.00,,,0.00,meteohub,2013-01-13 17:17:00,
2013-01-13 12:22:00,75.4,67.6,30.08,SSW,196,6.0,14.0,77,0.00,,,0.00,meteohub,2013-01-13 17:22:00,
2013-01-13 12:27:00,75.6,67.8,30.08,SE,141,6.0,13.0,77,0.00,,,0.00,meteohub,2013-01-13 17:27:00,
2013-01-13 12:32:00,75.7,68.0,30.08,SSE,165,7.0,14.0,77,0.00,,,0.00,meteohub,2013-01-13 17:32:00,
2013-01-13 12:37:00,76.3,68.2,30.08,ESE,117,4.0,14.0,76,0.00,,,0.00,meteohub,2013-01-13 17:37:00,
2013-01-13 12:42:00,76.6,68.5,30.07,ESE,114,3.0,14.0,76,0.00,,,0.00,meteohub,2013-01-13 17:42:00,
2013-01-13 12:47:00,77.2,68.7,30.07,SE,140,5.0,14.0,75,0.00,,,0.00,meteohub,2013-01-13 17:47:00,
2013-01-13 12:52:00,77.4,68.0,30.06,ESE,117,5.0,9.0,73,0.00,,,0.00,meteohub,2013-01-13 17:52:00,
2013-01-13 12:57:00,76.5,67.6,30.06,SE,144,7.0,10.0,74,0.00,,,0.00,meteohub,2013-01-13 17:57:00,
2013-01-13 13:02:00,76.5,68.0,30.06,SSE,152,5.0,12.0,75,0.00,,,0.00,meteohub,2013-01-13 18:02:00,
2013-01-13 13:07:00,76.6,67.6,30.06,SSE,156,10.0,12.0,74,0.00,,,0.00,meteohub,2013-01-13 18:07:00,
2013-01-13 13:12:00,76.8,67.8,30.05,ESE,117,3.0,15.0,74,0.00,,,0.00,meteohub,2013-01-13 18:12:00,
2013-01-13 13:17:00,76.6,67.3,30.05,SSE,151,9.0,15.0,73,0.00,,,0.00,meteohub,2013-01-13 18:17:00,
2013-01-13 13:22:00,76.3,66.9,30.05,ESE,102,10.0,15.0,73,0.00,,,0.00,meteohub,2013-01-13 18:22:00,
2013-01-13 13:27:00,76.6,66.6,30.05,SE,134,5.0,14.0,71,0.00,,,0.00,meteohub,2013-01-13 18:27:00,
2013-01-13 13:32:00,76.6,66.9,30.05,SSE,147,5.0,14.0,72,0.00,,,0.00,meteohub,2013-01-13 18:32:00,
2013-01-13 13:37:00,76.8,66.7,30.05,SE,132,5.0,12.0,71,0.00,,,0.00,meteohub,2013-01-13 18:37:00,
2013-01-13 13:42:00,77.5,67.5,30.04,SSE,148,2.0,12.0,71,0.00,,,0.00,meteohub,2013-01-13 18:42:00,
2013-01-13 13:47:00,77.9,67.3,30.04,ESE,117,8.0,12.0,70,0.00,,,0.00,meteohub,2013-01-13 18:47:00,
2013-01-13 13:52:00,77.7,67.1,30.04,SE,130,8.0,12.0,70,0.00,,,0.00,meteohub,2013-01-13 18:52:00,
2013-01-13 13:57:00,78.1,67.1,30.04,SE,133,4.0,12.0,69,0.00,,,0.00,meteohub,2013-01-13 18:57:00,
2013-01-13 14:02:00,78.3,67.3,30.04,South,180,3.0,11.0,69,0.00,,,0.00,meteohub,2013-01-13 19:02:00,
2013-01-13 14:07:00,78.1,67.1,30.05,South,172,5.0,11.0,69,0.00,,,0.00,meteohub,2013-01-13 19:07:00,
2013-01-13 14:12:00,78.4,66.6,30.04,ESE,120,3.0,11.0,67,0.00,,,0.00,meteohub,2013-01-13 19:12:00,
2013-01-13 14:17:00,78.4,66.6,30.04,SSE,161,6.0,11.0,67,0.00,,,0.00,meteohub,2013-01-13 19:17:00,
2013-01-13 14:22:00,77.9,66.6,30.04,SSE,148,7.0,11.0,68,0.00,,,0.00,meteohub,2013-01-13 19:22:00,
2013-01-13 14:27:00,77.9,66.0,30.04,SSE,168,4.0,12.0,67,0.00,,,0.00,meteohub,2013-01-13 19:27:00,
2013-01-13 14:32:00,78.1,66.2,30.04,SSE,165,5.0,12.0,67,0.00,,,0.00,meteohub,2013-01-13 19:32:00,
2013-01-13 14:37:00,78.4,66.6,30.04,ESE,109,3.0,12.0,67,0.00,,,0.00,meteohub,2013-01-13 19:37:00,
2013-01-13 14:42:00,78.4,66.2,30.04,SSE,162,6.0,9.0,66,0.00,,,0.00,meteohub,2013-01-13 19:42:00,
2013-01-13 14:47:00,78.4,66.6,30.04,SE,143,3.0,10.0,67,0.00,,,0.00,meteohub,2013-01-13 19:47:00,
2013-01-13 14:52:00,78.6,66.7,30.04,SE,125,4.0,10.0,67,0.00,,,0.00,meteohub,2013-01-13 19:52:00,
2013-01-13 14:57:00,78.6,66.4,30.04,SSE,153,5.0,10.0,66,0.00,,,0.00,meteohub,2013-01-13 19:57:00,
2013-01-13 15:02:00,79.0,67.1,30.05,SSW,192,3.0,7.0,67,0.00,,,0.00,meteohub,2013-01-13 20:02:00,
2013-01-13 15:07:00,78.8,66.6,30.05,ESE,117,3.0,10.0,66,0.00,,,0.00,meteohub,2013-01-13 20:07:00,
2013-01-13 15:12:00,79.0,66.6,30.04,ESE,111,3.0,10.0,66,0.00,,,0.00,meteohub,2013-01-13 20:12:00,
2013-01-13 15:17:00,79.0,66.2,30.04,SSE,147,3.0,10.0,65,0.00,,,0.00,meteohub,2013-01-13 20:17:00,
2013-01-13 15:22:00,78.6,65.8,30.04,SSE,158,4.0,7.0,65,0.00,,,0.00,meteohub,2013-01-13 20:22:00,
2013-01-13 15:32:00,78.6,66.4,30.04,SSE,167,2.0,8.0,66,0.00,,,0.00,meteohub,2013-01-13 20:32:00,
2013-01-13 15:37:00,78.6,66.4,30.04,East,96,6.0,8.0,66,0.00,,,0.00,meteohub,2013-01-13 20:37:00,
2013-01-13 15:42:00,78.4,66.6,30.04,East,82,6.0,7.0,67,0.00,,,0.00,meteohub,2013-01-13 20:42:00,
2013-01-13 15:47:00,78.1,66.7,30.04,East,81,0.0,8.0,68,0.00,,,0.00,meteohub,2013-01-13 20:47:00,
2013-01-13 15:52:00,77.9,66.6,30.05,East,98,0.0,8.0,68,0.00,,,0.00,meteohub,2013-01-13 20:52:00,
2013-01-13 15:57:00,78.1,67.1,30.05,East,101,2.0,8.0,69,0.00,,,0.00,meteohub,2013-01-13 20:57:00,
2013-01-13 16:02:00,78.1,66.7,30.05,East,101,0.0,5.0,68,0.00,,,0.00,meteohub,2013-01-13 21:02:00,
2013-01-13 16:07:00,77.9,66.6,30.05,East,101,1.0,5.0,68,0.00,,,0.00,meteohub,2013-01-13 21:07:00,
2013-01-13 16:12:00,77.9,66.9,30.05,ESE,103,0.0,5.0,69,0.00,,,0.00,meteohub,2013-01-13 21:12:00,
2013-01-13 16:17:00,77.9,66.6,30.05,ESE,103,1.0,5.0,68,0.00,,,0.00,meteohub,2013-01-13 21:17:00,
2013-01-13 16:22:00,77.7,66.4,30.05,ESE,103,1.0,3.0,68,0.00,,,0.00,meteohub,2013-01-13 21:22:00,
2013-01-13 16:27:00,77.7,66.7,30.05,ESE,103,0.0,3.0,69,0.00,,,0.00,meteohub,2013-01-13 21:27:00,
2013-01-13 16:32:00,77.5,66.2,30.05,ESE,103,1.0,3.0,68,0.00,,,0.00,meteohub,2013-01-13 21:32:00,
2013-01-13 16:37:00,77.5,66.6,30.05,ESE,103,0.0,3.0,69,0.00,,,0.00,meteohub,2013-01-13 21:37:00,
2013-01-13 16:42:00,77.5,66.2,30.06,ESE,103,0.0,3.0,68,0.00,,,0.00,meteohub,2013-01-13 21:42:00,
2013-01-13 16:47:00,77.5,66.6,30.06,ESE,103,0.0,3.0,69,0.00,,,0.00,meteohub,2013-01-13 21:47:00,
2013-01-13 16:52:00,77.5,66.2,30.05,ESE,103,0.0,1.0,68,0.00,,,0.00,meteohub,2013-01-13 21:52:00,
2013-01-13 16:57:00,77.5,66.6,30.05,ESE,103,0.0,1.0,69,0.00,,,0.00,meteohub,2013-01-13 21:57:00,
2013-01-13 17:02:00,77.5,66.6,30.05,ESE,103,0.0,3.0,69,0.00,,,0.00,meteohub,2013-01-13 22:02:00,
2013-01-13 17:07:00,77.5,66.6,30.06,ESE,103,0.0,3.0,69,0.00,,,0.00,meteohub,2013-01-13 22:07:00,
2013-01-13 17:12:00,77.7,66.7,30.06,ESE,103,0.0,3.0,69,0.00,,,0.00,meteohub,2013-01-13 22:12:00,
2013-01-13 17:17:00,77.5,66.6,30.06,ESE,103,0.0,1.0,69,0.00,,,0.00,meteohub,2013-01-13 22:17:00,
2013-01-13 17:22:00,77.5,66.9,30.06,ESE,103,0.0,2.0,70,0.00,,,0.00,meteohub,2013-01-13 22:22:00,
2013-01-13 17:27:00,77.2,66.6,30.06,SSE,158,3.0,3.0,70,0.00,,,0.00,meteohub,2013-01-13 22:27:00,
2013-01-13 17:32:00,77.2,67.1,30.06,SSE,167,1.0,5.0,71,0.00,,,0.00,meteohub,2013-01-13 22:32:00,
2013-01-13 17:37:00,77.0,67.3,30.06,South,172,3.0,5.0,72,0.00,,,0.00,meteohub,2013-01-13 22:37:00,
2013-01-13 17:42:00,76.8,67.1,30.06,SSW,196,6.0,6.0,72,0.00,,,0.00,meteohub,2013-01-13 22:42:00,
2013-01-13 17:47:00,76.5,66.4,30.06,SSW,199,4.0,8.0,71,0.00,,,0.00,meteohub,2013-01-13 22:47:00,
2013-01-13 17:52:00,75.9,66.2,30.06,SSW,205,2.0,8.0,72,0.00,,,0.00,meteohub,2013-01-13 22:52:00,
2013-01-13 17:57:00,75.7,66.0,30.06,SSW,205,2.0,8.0,72,0.00,,,0.00,meteohub,2013-01-13 22:57:00,
2013-01-13 18:02:00,75.6,65.8,30.06,SSW,205,3.0,8.0,72,0.00,,,0.00,meteohub,2013-01-13 23:02:00,
2013-01-13 18:07:00,75.4,65.7,30.06,SSW,201,5.0,6.0,72,0.00,,,0.00,meteohub,2013-01-13 23:07:00,
2013-01-13 18:12:00,75.2,65.5,30.06,SSW,198,3.0,6.0,72,0.00,,,0.00,meteohub,2013-01-13 23:12:00,
2013-01-13 18:17:00,75.0,65.3,30.06,SSW,201,4.0,7.0,72,0.00,,,0.00,meteohub,2013-01-13 23:17:00,
2013-01-13 18:22:00,74.8,65.7,30.06,SSW,197,4.0,7.0,73,0.00,,,0.00,meteohub,2013-01-13 23:22:00,
2013-01-13 18:27:00,74.5,65.3,30.05,SSW,199,4.0,8.0,73,0.00,,,0.00,meteohub,2013-01-13 23:27:00,
2013-01-13 18:32:00,74.3,65.1,30.06,SSW,213,3.0,8.0,73,0.00,,,0.00,meteohub,2013-01-13 23:32:00,
2013-01-13 18:37:00,74.1,64.9,30.06,SSW,201,5.0,7.0,73,0.00,,,0.00,meteohub,2013-01-13 23:37:00,
2013-01-13 18:42:00,73.9,65.1,30.06,SSW,204,5.0,7.0,74,0.00,,,0.00,meteohub,2013-01-13 23:42:00,
2013-01-13 18:47:00,73.8,64.9,30.06,SSW,205,3.0,6.0,74,0.00,,,0.00,meteohub,2013-01-13 23:47:00,
2013-01-13 18:52:00,73.6,65.1,30.06,SSW,205,3.0,6.0,75,0.00,,,0.00,meteohub,2013-01-13 23:52:00,
2013-01-13 18:57:00,73.4,64.9,30.06,SSW,205,1.0,6.0,75,0.00,,,0.00,meteohub,2013-01-13 23:57:00,
2013-01-13 19:02:00,73.0,64.6,30.06,SSW,205,1.0,5.0,75,0.00,,,0.00,meteohub,2013-01-14 00:02:00,
2013-01-13 19:07:00,72.9,64.8,30.06,SSW,205,2.0,5.0,76,0.00,,,0.00,meteohub,2013-01-14 00:07:00,
2013-01-13 19:12:00,72.9,64.8,30.06,SSW,205,0.0,5.0,76,0.00,,,0.00,meteohub,2013-01-14 00:12:00,
2013-01-13 19:17:00,72.7,65.1,30.06,SSW,205,1.0,3.0,77,0.00,,,0.00,meteohub,2013-01-14 00:17:00,
2013-01-13 19:22:00,72.7,65.1,30.06,SSW,204,3.0,5.0,77,0.00,,,0.00,meteohub,2013-01-14 00:22:00,
2013-01-13 19:27:00,72.5,64.9,30.06,SSW,201,3.0,7.0,77,0.00,,,0.00,meteohub,2013-01-14 00:27:00,
2013-01-13 19:32:00,72.3,65.1,30.06,SSW,196,5.0,7.0,78,0.00,,,0.00,meteohub,2013-01-14 00:32:00,
2013-01-13 19:37:00,72.1,64.9,30.06,SSW,196,4.0,7.0,78,0.00,,,0.00,meteohub,2013-01-14 00:37:00,
2013-01-13 19:42:00,72.1,65.3,30.06,SSW,196,1.0,6.0,79,0.00,,,0.00,meteohub,2013-01-14 00:42:00,
2013-01-13 19:47:00,72.0,65.1,30.06,SSW,196,2.0,5.0,79,0.00,,,0.00,meteohub,2013-01-14 00:47:00,
2013-01-13 19:52:00,71.8,64.9,30.06,SSW,196,1.0,5.0,79,0.00,,,0.00,meteohub,2013-01-14 00:52:00,
2013-01-13 19:57:00,71.4,64.9,30.06,SSW,196,1.0,5.0,80,0.00,,,0.00,meteohub,2013-01-14 00:57:00,
2013-01-13 20:02:00,71.2,64.8,30.06,SSW,196,0.0,3.0,80,0.00,,,0.00,meteohub,2013-01-14 01:02:00,
2013-01-13 20:07:00,71.1,64.9,30.05,SSW,196,0.0,2.0,81,0.00,,,0.00,meteohub,2013-01-14 01:07:00,
2013-01-13 20:12:00,70.9,64.8,30.05,SSW,196,1.0,2.0,81,0.00,,,0.00,meteohub,2013-01-14 01:12:00,
2013-01-13 20:17:00,70.5,64.8,30.05,SSW,196,0.0,1.0,82,0.00,,,0.00,meteohub,2013-01-14 01:17:00,
2013-01-13 20:22:00,70.3,64.6,30.05,SSW,196,0.0,1.0,82,0.00,,,0.00,meteohub,2013-01-14 01:22:00,
2013-01-13 20:27:00,70.0,64.6,30.05,SSW,196,0.0,1.0,83,0.00,,,0.00,meteohub,2013-01-14 01:27:00,
2013-01-13 20:32:00,69.8,64.4,30.05,SSW,196,0.0,1.0,83,0.00,,,0.00,meteohub,2013-01-14 01:32:00,
2013-01-13 20:37:00,69.6,64.2,30.05,SSW,196,0.0,0.0,83,0.00,,,0.00,meteohub,2013-01-14 01:37:00,
2013-01-13 20:42:00,69.6,64.6,30.05,SSW,196,0.0,1.0,84,0.00,,,0.00,meteohub,2013-01-14 01:42:00,
2013-01-13 20:47:00,69.4,64.4,30.05,SSW,196,0.0,1.0,84,0.00,,,0.00,meteohub,2013-01-14 01:47:00,
2013-01-13 20:52:00,69.4,64.8,30.05,SSW,196,0.0,1.0,85,0.00,,,0.00,meteohub,2013-01-14 01:52:00,
2013-01-13 20:57:00,69.4,64.8,30.06,SSW,196,0.0,1.0,85,0.00,,,0.00,meteohub,2013-01-14 01:57:00,
2013-01-13 21:02:00,69.3,64.6,30.06,SSW,196,0.0,1.0,85,0.00,,,0.00,meteohub,2013-01-14 02:02:00,
2013-01-13 21:07:00,68.9,64.2,30.06,SSW,196,0.0,0.0,85,0.00,,,0.00,meteohub,2013-01-14 02:07:00,
2013-01-13 21:12:00,68.7,64.4,30.06,SSW,196,0.0,1.0,86,0.00,,,0.00,meteohub,2013-01-14 02:12:00,
2013-01-13 21:17:00,68.5,64.2,30.06,SSW,196,0.0,1.0,86,0.00,,,0.00,meteohub,2013-01-14 02:17:00,
2013-01-13 21:22:00,68.4,64.0,30.06,SSW,196,0.0,1.0,86,0.00,,,0.00,meteohub,2013-01-14 02:22:00,
2013-01-13 21:27:00,68.4,64.0,30.06,SSW,196,0.0,1.0,86,0.00,,,0.00,meteohub,2013-01-14 02:27:00,
2013-01-13 21:32:00,68.4,64.4,30.06,SSW,196,0.0,0.0,87,0.00,,,0.00,meteohub,2013-01-14 02:32:00,
2013-01-13 21:37:00,68.2,64.4,30.06,SSW,196,0.0,0.0,88,0.00,,,0.00,meteohub,2013-01-14 02:37:00,
2013-01-13 21:42:00,68.5,65.1,30.06,SSW,196,1.0,1.0,89,0.00,,,0.00,meteohub,2013-01-14 02:42:00,
2013-01-13 21:47:00,68.9,65.5,30.07,SSW,196,1.0,2.0,89,0.00,,,0.00,meteohub,2013-01-14 02:47:00,
2013-01-13 21:52:00,69.3,65.8,30.07,South,186,1.0,3.0,89,0.00,,,0.00,meteohub,2013-01-14 02:52:00,
2013-01-13 21:57:00,69.3,65.8,30.07,South,184,0.0,3.0,89,0.00,,,0.00,meteohub,2013-01-14 02:57:00,
2013-01-13 22:02:00,69.3,65.8,30.07,SSE,165,2.0,3.0,89,0.00,,,0.00,meteohub,2013-01-14 03:02:00,
2013-01-13 22:07:00,69.4,66.4,30.08,SSE,165,2.0,3.0,90,0.00,,,0.00,meteohub,2013-01-14 03:07:00,
2013-01-13 22:12:00,69.4,66.4,30.08,SSE,165,0.0,3.0,90,0.00,,,0.00,meteohub,2013-01-14 03:12:00,
2013-01-13 22:17:00,69.3,66.2,30.09,SSE,165,0.0,3.0,90,0.00,,,0.00,meteohub,2013-01-14 03:17:00,
2013-01-13 22:22:00,69.3,66.6,30.08,SSE,165,0.0,3.0,91,0.00,,,0.00,meteohub,2013-01-14 03:22:00,
2013-01-13 22:27:00,69.1,66.4,30.09,SSE,165,0.0,1.0,91,0.00,,,0.00,meteohub,2013-01-14 03:27:00,
2013-01-13 22:32:00,68.9,66.2,30.08,SSE,165,0.0,1.0,91,0.00,,,0.00,meteohub,2013-01-14 03:32:00,
2013-01-13 22:37:00,68.7,66.0,30.08,SSE,165,0.0,1.0,91,0.00,,,0.00,meteohub,2013-01-14 03:37:00,
2013-01-13 22:42:00,68.7,66.0,30.08,SSE,165,0.0,0.0,91,0.00,,,0.00,meteohub,2013-01-14 03:42:00,
2013-01-13 22:47:00,68.5,65.8,30.08,SSE,165,0.0,0.0,91,0.00,,,0.00,meteohub,2013-01-14 03:47:00,
2013-01-13 22:52:00,68.5,65.8,30.09,SSE,165,0.0,1.0,91,0.00,,,0.00,meteohub,2013-01-14 03:52:00,
2013-01-13 22:57:00,68.5,66.2,30.09,SSE,165,0.0,1.0,92,0.00,,,0.00,meteohub,2013-01-14 03:57:00,
2013-01-13 23:02:00,68.5,66.2,30.09,SSE,165,0.0,1.0,92,0.00,,,0.00,meteohub,2013-01-14 04:02:00,
2013-01-13 23:07:00,68.4,65.7,30.09,SSE,165,0.0,0.0,91,0.00,,,0.00,meteohub,2013-01-14 04:07:00,
2013-01-13 23:12:00,68.2,65.5,30.09,SSE,165,1.0,0.0,91,0.00,,,0.00,meteohub,2013-01-14 04:12:00,
2013-01-13 23:17:00,68.0,65.7,30.09,SSE,165,0.0,1.0,92,0.00,,,0.00,meteohub,2013-01-14 04:17:00,
2013-01-13 23:22:00,67.8,65.5,30.09,SSE,165,0.0,1.0,92,0.00,,,0.00,meteohub,2013-01-14 04:22:00,
2013-01-13 23:27:00,67.8,65.5,30.09,SSE,165,0.0,1.0,92,0.00,,,0.00,meteohub,2013-01-14 04:27:00,
2013-01-13 23:32:00,67.8,65.7,30.09,SSE,165,0.0,1.0,93,0.00,,,0.00,meteohub,2013-01-14 04:32:00,
2013-01-13 23:37:00,67.8,65.5,30.09,SSE,165,0.0,1.0,92,0.00,,,0.00,meteohub,2013-01-14 04:37:00,
2013-01-13 23:42:00,67.8,65.5,30.09,SSE,165,0.0,1.0,92,0.00,,,0.00,meteohub,2013-01-14 04:42:00,
2013-01-13 23:47:00,67.6,65.3,30.09,SSE,165,0.0,1.0,92,0.00,,,0.00,meteohub,2013-01-14 04:47:00,
2013-01-13 23:52:00,67.5,65.1,30.09,SSE,165,0.0,0.0,92,0.00,,,0.00,meteohub,2013-01-14 04:52:00,
2013-01-13 23:57:00,67.3,64.9,30.09,SSE,165,0.0,0.0,92,0.00,,,0.00,meteohub,2013-01-14 04:57:00,